FW3054 Weather Reports


time (UTC)temp
C
wind
direction
speed
KPH
gust
KPH
rain 1hr
cm
rain 24hr
cm
rain mn
cm
humidity
%
barometer
mb
20260831233536 27 0.0 0.0 0.00 0.00 0.00 76 1021.7
20260831232516 27 0.0 0.0 0.00 0.00 0.00 74 1021.7
20260831231516 27 0.0 0.0 0.00 0.00 0.00 74 1021.8
20260831230516 27 0.0 0.0 0.00 0.00 0.00 72 1021.9
20260831225516 27 0.0 1.6 0.00 0.00 0.00 72 1021.9
20260831224516 27 0.0 0.0 0.00 0.00 0.00 71 1021.8
20260831223516 27 0.0 0.0 0.00 0.00 0.00 70 1021.9
20260831222516 28 0.0 0.0 0.00 0.00 0.00 71 1021.9
20260831221516 28 0.0 0.0 0.00 0.00 0.00 68 1021.9
20260831220536 28 0.0 0.0 0.00 0.00 0.00 68 1021.9
20260831215536 28 0.0 1.6 0.00 0.00 0.00 68 1022.0
20260831214516 28 0.0 1.6 0.00 0.00 0.00 67 1021.9
20260831213516 28 0.0 1.6 0.00 0.00 0.00 67 1022.1
20260831212516 28 0.0 1.6 0.00 0.00 0.00 67 1022.1
20260831211516 28 0.0 1.6 0.00 0.00 0.00 66 1022.1
20260831210516 28 135 1.6 3.2 0.00 0.00 0.00 66 1021.9
20260831205516 28 135 1.6 3.2 0.00 0.00 0.00 66 1022.0
20260831204516 29 135 1.6 3.2 0.00 0.00 0.00 67 1022.2
20260831203557 30 0.0 1.6 0.00 0.00 0.00 64 1022.5
20260831202516 30 0.0 0.0 0.00 0.00 0.00 61 1022.5
20260831201516 30 135 1.6 3.2 0.00 0.00 0.00 61 1022.3
20260831200516 30 0.0 3.2 0.00 0.00 0.00 64 1022.6
20260831195516 31 0.0 3.2 0.00 0.00 0.00 62 1022.8
20260831194516 31 0.0 1.6 0.00 0.00 0.00 60 1023.1
20260831193516 31 23 1.6 8.0 0.00 0.00 0.00 55 1023.0
20260831192516 31 23 1.6 3.2 0.00 0.00 0.00 60 1023.0
20260831191516 31 0.0 4.8 0.00 0.00 0.00 57 1023.1
20260831190516 31 23 1.6 8.0 0.00 0.00 0.00 57 1023.2
20260831185516 31 23 1.6 6.4 0.00 0.00 0.00 49 1023.2
20260831184516 31 23 3.2 8.0 0.00 0.00 0.00 51 1023.2
20260831182516 31 23 1.6 6.4 0.00 0.00 0.00 52 1023.5
20260831181515 31 0 1.6 4.8 0.00 0.00 0.00 54 1023.5
20260831180518 31 0 1.6 4.8 0.00 0.00 0.00 52 1023.6
20260831175516 31 0.0 1.6 0.00 0.00 0.00 55 1023.8
20260831174516 30 23 1.6 8.0 0.00 0.00 0.00 56 1023.6
20260831173516 30 23 1.6 3.2 0.00 0.00 0.00 57 1023.8
20260831172516 30 0.0 1.6 0.00 0.00 0.00 63 1023.9
20260831171515 29 0.0 3.2 0.00 0.00 0.00 63 1023.7
20260831170515 28 0 1.6 4.8 0.00 0.00 0.00 64 1023.9
20260831165535 29 0 1.6 4.8 0.00 0.00 0.00 66 1024.0
20260831164516 29 0 1.6 8.0 0.00 0.00 0.00 64 1024.3
20260831163515 28 23 1.6 3.2 0.00 0.00 0.00 66 1024.4
20260831162517 28 0 1.6 6.4 0.00 0.00 0.00 66 1024.4
20260831161515 28 23 1.6 4.8 0.00 0.00 0.00 67 1024.3
20260831160515 27 0.0 0.0 0.00 0.00 0.00 72 1024.4
20260831155515 27 0.0 3.2 0.00 0.00 0.00 72 1024.3
20260831154515 26 0.0 0.0 0.00 0.00 0.00 75 1024.4
20260831153515 26 0.0 3.2 0.00 0.00 0.00 77 1024.5
20260831152515 26 0.0 0.0 0.00 0.00 0.00 81 1024.7
20260831151515 25 0.0 1.6 0.00 0.00 0.00 82 1024.7
20260831150515 24 0.0 6.4 0.00 0.00 0.00 84 1024.6
20260831145515 23 0.0 0.0 0.00 0.00 0.00 86 1024.7
20260831144515 23 0.0 1.6 0.00 0.00 0.00 88 1024.6
20260831143515 22 0.0 1.6 0.00 0.00 0.00 90 1024.6
20260831142555 22 0.0 1.6 0.00 0.00 0.00 90 1024.5
20260831141515 21 0.0 0.0 0.00 0.00 0.00 89 1024.5
20260831140515 21 0.0 0.0 0.00 0.00 0.00 85 1024.3
20260831135515 20 0.0 0.0 0.00 0.00 0.00 80 1024.1
20260831134515 20 0.0 0.0 0.00 0.00 0.00 78 1024.1
20260831133515 20 0.0 0.0 0.00 0.00 0.00 78 1024.0
20260831132515 19 0.0 0.0 0.00 0.00 0.00 77 1024.2
20260831131515 19 0.0 0.0 0.00 0.00 0.00 77 1024.3
20260831130515 18 0.0 0.0 0.00 0.00 0.00 76 1024.2
20260831125515 18 0.0 0.0 0.00 0.00 0.00 76 1024.2
20260831124517 18 0.0 0.0 0.00 0.00 0.00 77 1024.0
20260831123517 18 0.0 0.0 0.00 0.00 0.00 77 1023.9
20260831122517 18 0.0 0.0 0.00 0.00 0.00 78 1024.0
20260831121517 18 0.0 0.0 0.00 0.00 0.00 79 1024.0
20260831120517 17 0.0 0.0 0.00 0.00 0.00 80 1023.8
20260831115517 17 0.0 0.0 0.00 0.00 0.00 81 1023.8
20260831114517 17 0.0 0.0 0.00 0.00 0.00 81 1023.7
20260831113517 17 0.0 0.0 0.00 0.00 0.00 82 1023.7
20260831112517 17 0.0 0.0 0.00 0.00 0.00 83 1023.8
20260831111517 17 0.0 0.0 0.00 0.00 0.00 83 1023.6
20260831110517 17 0.0 0.0 0.00 0.00 0.00 83 1023.7
20260831105517 17 0.0 0.0 0.00 0.00 0.00 83 1023.7
20260831104517 18 0.0 0.0 0.00 0.00 0.00 83 1023.6
20260831103517 18 0.0 0.0 0.00 0.00 0.00 84 1023.4
20260831102517 18 0.0 0.0 0.00 0.00 0.00 83 1023.4
20260831101557 18 0.0 0.0 0.00 0.00 0.00 83 1023.3
20260831100517 18 0.0 0.0 0.00 0.00 0.00 83 1023.4
20260831095517 18 0.0 0.0 0.00 0.00 0.00 83 1023.3
20260831094537 18 0.0 0.0 0.00 0.00 0.00 84 1023.2
20260831093517 18 0.0 0.0 0.00 0.00 0.00 84 1023.3
20260831092517 18 0.0 0.0 0.00 0.00 0.00 85 1023.6
20260831091537 18 0.0 0.0 0.00 0.00 0.00 85 1023.6
20260831090517 18 0.0 0.0 0.00 0.00 0.00 85 1023.4
20260831085517 18 0.0 0.0 0.00 0.00 0.00 85 1023.8
20260831084517 18 0.0 0.0 0.00 0.00 0.00 85 1023.7
20260831083517 18 0.0 0.0 0.00 0.00 0.00 85 1023.8
20260831082557 18 0.0 0.0 0.00 0.00 0.00 84 1023.4
20260831081517 18 0.0 0.0 0.00 0.00 0.00 85 1023.4
20260831080537 18 0.0 0.0 0.00 0.00 0.00 85 1023.5
20260831075517 18 0.0 0.0 0.00 0.00 0.00 85 1023.7
20260831074517 19 0.0 0.0 0.00 0.00 0.00 85 1023.9
20260831073517 19 0.0 0.0 0.00 0.00 0.00 86 1023.9
20260831072517 19 0.0 0.0 0.00 0.00 0.00 86 1023.9
20260831071517 19 0.0 0.0 0.00 0.00 0.00 86 1023.9
20260831070536 19 0.0 0.0 0.00 0.00 0.00 87 1023.8
20260831065516 19 0.0 0.0 0.00 0.00 0.00 87 1023.7
20260831064517 19 0.0 0.0 0.00 0.00 0.00 87 1023.7
20260831063517 19 0.0 0.0 0.00 0.00 0.00 87 1023.6
20260831062517 20 0.0 0.0 0.00 0.00 0.00 87 1023.8
20260831061517 20 0.0 0.0 0.00 0.00 0.00 88 1023.9
20260831060516 20 0.0 0.0 0.00 0.00 0.00 88 1024.0
20260831055517 20 0.0 0.0 0.00 0.00 0.00 88 1024.0
20260831054517 20 0.0 0.0 0.00 0.00 0.00 89 1023.8
20260831053516 20 0.0 0.0 0.00 0.00 0.00 89 1024.1
20260831052517 20 0.0 0.0 0.00 0.00 0.00 89 1023.8
20260831051516 20 0.0 0.0 0.00 0.00 0.00 89 1023.9
20260831050516 20 0.0 0.0 0.00 0.00 0.00 89 1023.8
20260831045516 20 0.0 0.0 0.00 0.00 0.00 89 1023.6
20260831044516 20 0.0 0.0 0.00 0.00 0.00 90 1023.6
20260831043516 20 0.0 0.0 0.00 0.00 0.00 90 1023.7
20260831042518 21 0.0 0.0 0.00 0.00 0.00 90 1023.5
20260831041536 21 0.0 0.0 0.00 0.00 0.00 90 1023.5
20260831040516 21 0.0 0.0 0.00 0.00 0.00 90 1023.5
20260831035516 21 0.0 0.0 0.00 0.00 0.00 89 1023.3
20260831034517 21 0.0 0.0 0.00 0.00 0.00 89 1023.5
20260831033517 21 0.0 0.0 0.00 0.00 0.00 89 1023.5
20260831032516 22 0.0 0.0 0.00 0.00 0.00 89 1023.5
20260831031516 22 0.0 0.0 0.00 0.00 0.00 88 1023.6
20260831030557 22 0.0 0.0 0.00 0.00 0.00 88 1023.6
20260831025516 22 0.0 0.0 0.00 0.00 0.00 88 1023.6
20260831024536 22 0.0 0.0 0.00 0.00 0.00 87 1023.7
20260831023517 22 0.0 0.0 0.00 0.00 0.00 87 1023.7
20260831022517 23 0.0 1.6 0.00 0.00 0.00 86 1023.6
20260831021517 23 0.0 1.6 0.00 0.00 0.00 85 1023.6
20260831020516 23 0.0 0.0 0.00 0.00 0.00 84 1023.5
20260831015517 23 0.0 0.0 0.00 0.00 0.00 83 1023.4
20260831014536 24 0.0 1.6 0.00 0.00 0.00 83 1023.4
20260831013516 24 0.0 0.0 0.00 0.00 0.00 82 1023.3
20260831012516 24 0.0 0.0 0.00 0.00 0.00 81 1023.0
20260831011516 24 0.0 0.0 0.00 0.00 0.00 82 1022.8
20260831010536 24 0.0 0.0 0.00 0.00 0.00 82 1022.6
20260831005516 24 0.0 1.6 0.00 0.00 0.00 83 1022.5
20260831004516 24 0.0 3.2 0.00 0.00 0.00 83 1022.4
20260831003536 24 0.0 3.2 0.00 0.00 0.00 82 1022.4
20260831002516 25 0.0 1.6 0.00 0.00 0.00 81 1022.4
20260831001516 25 0.0 1.6 0.00 0.00 0.00 80 1022.5
20260831000516 25 0.0 0.0 0.00 0.00 0.00 79 1022.4
20260830235516 25 0.0 0.0 0.00 0.00 0.00 78 1022.3
20260830234516 25 0.0 0.0 0.00 0.00 0.00 78 1022.2